METEOR 2-5 DEB, 38280

Orbit data source: Space-Track

METEOR 2-5 DEB, 38280 is space debris in LEO originally from a launch on Wed, 31 Oct 1979 UTC launched from the Plesetsk Missile And Space Complex (PKMTR). Debris objects in space refer to the collection of defunct objects orbiting the Earth. Examples of debris include non-operational satellites, rocket bodies, and fragments generated from explosions, collisions, or faulty payload assembly.

Loading next visibility...
Identifier
38280, 1979-095CA
Orbit
LEO
Country
Flag of CISCIS
Related business
Manufacturer
Unknown
Mission
Spacecraft
Bus & Motor
Unknown
Mass
Unknown
Launch date (UTC)
1979-10-31 (46 years ago)
Launch vehicle
Unknown
Launch site
Plesetsk Missile And Space Complex (PKMTR)
Object type
Payload
Rocket body
Debris
Shape & HBR
Unknown shape, 0.1 m
Radar Cross Section
Small (<0.1 m²)

Expand to show TLE details & history
Last TLE update: 3 days ago

TLE from 3 days ago
0 METEOR 2-5 DEB
1 38280U 79095CA  25352.53917787  .00006678  00000-0  19197-2 0  9991
2 38280  81.1846 287.1309 0004625 141.2836 218.8687 14.44749752781398
Epoch: 2025-12-18T12:56Z
TLE epoch observation values (Epoch: 2025-12-18T12:56:24.967Z)
Latitude
0.00004°
Longitude
5.63364°
Altitude
748.358 km
Speed
7.479 km/s
True Right ascension
19h 08m 31s
True Declination
0° 00' 00"
Sunlit
Object was in daylight at epoch
Visualization orbit readout
Latitude
Unknown
Longitude
Unknown
Altitude
Unknown
Speed
Unknown
Apparent Right ascension
Unknown
Apparent Declination
Unknown
Sunlit
N/A
Visualization observer readout
Local Sidereal Time
12:22:01
Azimuth
Unknown
Elevation
Unknown
Doppler factor
Unknown
Orbital elements
Apogee altitude
743.271 km
Perigee altitude
736.687 km
Semi-major axis
7,118.116 km
Eccentricity
0.00046
Inclination
81.1846°
RAAN
287.1309°
Arg. of periapsis
141.2836°
True anomaly
218.83546°
Mean anomaly
218.8687°
Eccentric anomaly
218.85208°
Mean motion
3.61406 °/min
Orbital period
99.61 mins
BSTAR
0.0019197
Loading maneuver chart data...
Computing Atmospheric mass density...

Documentation

Showing up to 5 results
|